Vertical_Velocity
4 2 2 2 5 -1 -2 -3 4 -3 -2 0 -6 -7 -3 -5 -4 -10 5 -0 -5 -2
3 -1 4 1 0 5 -4 -0 -1 -3 -4 -2 -4 -4 0 1 -10 -4 1 -0 -2 -1
2 3 2 -0 2 7 0 -3 -0 -5 -2 -1 -4 0 -1 -0 -5 -6 -2 2 -3 -1
3 -7 1 2 -2 3 -2 -0 1 2 1 2 -2 -0 -6 1 -1 -4 -1 -1 -1 -3
-2 0 4 -0 2 -1 4 -1 1 1 1 -0 -2 -3 -1 2 -2 -0 0 -1 -1 -5
2 -0 5 -3 -3 2 5 -4 1 -0 1 2 -0 -5 0 2 -7 3 2 0 -2 -6
10 5 4 -3 -2 -5 7 2 -9 1 -1 0 0 -2 1 0 -2 -4 2 2 -2 -5
7 3 -3 13 2 2 5 8 -6 1 -3 -3 2 -1 -4 -3 2 -1 1 0 -2 -1
6 8 1 -1 2 4 5 2 -0 -0 4 -4 3 0 -4 1 -4 -3 1 0 -1 -0
1 -4 12 11 -7 5 4 0 4 -4 2 -1 0 0 -3 2 0 -4 2 -1 -3 -1
2 7 24 -6 0 -4 0 6 1 -2 -0 2 -0 2 -0 -0 1 -3 4 1 -1 -2
10 9 8 9 0 -3 -5 8 0 -1 1 2 -1 1 1 0 -1 -3 2 -2 0 -1
14 20 6 4 2 -4 -3 4 2 2 1 -2 2 0 2 -1 -1 0 2 -1 -0 -1
4 9 4 -0 -2 -5 2 3 -0 2 2 -2 1 3 2 -0 -0 2 -0 -0 0 -1
Height
3044 3047 3050 3055 3057 3058 3059 3060 3059 3056 3053 3051 3050 3047 3046 3044 3042 3042 3040 3035 3033 3032
3039 3041 3045 3048 3050 3051 3052 3054 3054 3051 3048 3047 3045 3043 3041 3039 3037 3038 3036 3032 3030 3029
3033 3037 3039 3042 3045 3045 3046 3047 3047 3045 3043 3041 3039 3039 3037 3035 3033 3033 3032 3029 3027 3026
3025 3029 3034 3036 3038 3040 3040 3041 3040 3040 3037 3035 3033 3033 3033 3030 3028 3028 3027 3026 3024 3023
3020 3021 3027 3029 3032 3034 3035 3034 3035 3034 3031 3030 3029 3028 3027 3026 3025 3025 3023 3022 3021 3020
3011 3014 3018 3020 3023 3027 3029 3028 3029 3028 3026 3024 3024 3023 3023 3022 3021 3022 3020 3018 3017 3016
3005 3009 3009 3011 3013 3019 3022 3020 3022 3021 3020 3019 3019 3018 3018 3018 3018 3018 3017 3014 3013 3012
2997 3000 3000 3003 3006 3011 3014 3013 3014 3014 3014 3014 3013 3013 3014 3014 3014 3013 3012 3011 3010 3009
2990 2991 2993 2995 2998 3003 3005 3007 3007 3008 3008 3008 3008 3008 3009 3009 3010 3010 3008 3008 3007 3006
2980 2983 2983 2987 2991 2995 2999 3000 2999 3001 3003 3002 3003 3003 3004 3006 3005 3005 3004 3004 3004 3002
2972 2973 2975 2981 2985 2990 2992 2992 2994 2996 2997 2997 2998 2999 3000 3001 3001 3001 3001 3000 3000 2999
2960 2967 2972 2976 2981 2985 2985 2987 2990 2991 2991 2992 2993 2994 2995 2996 2996 2996 2997 2997 2996 2995
2955 2962 2967 2971 2977 2979 2979 2982 2986 2986 2985 2986 2988 2989 2990 2991 2992 2992 2992 2993 2993 2991
2951 2957 2961 2967 2972 2973 2974 2978 2981 2981 2981 2981 2982 2984 2985 2986 2987 2988 2988 2989 2988 2987